Regional Weather Roundup
Issued by NWS Goodland, KS

Home | Current Version | Previous Version | Text Only | Print | Product List | Glossary On
Versions: 1 2 3 4 5 6 7 8 9 10 11 12 13 14 15 16 17 18 19 20 21 22 23 24 25 26 27 28 29 30 31 32 33 34 35 36 37 38 39 40 41 42 43 44 45 46 47 48 49 50
000
ASUS43 KGLD 231208
RWRGLD

GOODLAND FORECAST AREA HOURLY WEATHER ROUNDUP
NATIONAL WEATHER SERVICE GOODLAND KS
600 AM MDT TUE MAY 23 2017

...OFFICIAL OBSERVATIONS...

CITY           SKY/WX    TMP DP  RH WIND       PRES   REMARKS
GOODLAND KS    CLEAR     40  38  93 NW12      30.12S
HILL CITY KS   CLEAR     46  43  89 NW12      30.06S
IMPERIAL NEB   CLOUDY    45  39  79 NW13      30.10S
MCCOOK NEB     CLEAR     42  40  92 W13       30.07R
AKRON CO       CLEAR     37  33  85 NW10      30.16F
BURLINGTON CO  CLEAR     39  37  92 NW10      30.14S
LIMON CO       CLEAR     38  35  89 NW12      30.19R
$$

...UNOFFICIAL OBSERVATIONS...

CITY           SKY/WX    TMP DP  RH WIND       PRES   REMARKS
LENORA KS        N/A     43  32  65 MISG        N/A
NORTON KS      CLEAR     43  37  81 W10       30.04S
SHARON SPRINGS   N/A     42  39  90 NW8         N/A
TRENTON NEB      N/A     43  32  65 NW5         N/A
KIT CARSON CO    N/A     39  35  87 MISG        N/A
YUMA CO        FAIR      36  34  93 W12       30.15R
$$



USA.gov is the U.S. government's official web portal to all federal, state and local government web resources and services.